Regional Weather Roundup
Issued by NWS

Home | Current Version | Previous Version | Graphics & Text | Print | Product List | Glossary On
Versions: 1 2 3 4 5 6 7 8 9 10 11 12 13 14 15 16 17 18 19 20 21 22 23 24 25 26 27 28 29 30 31 32 33 34 35 36 37 38 39 40 41 42 43 44 45 46 47 48 49 50
060
ASUS43 KBIS 041702
RWRND

NORTH DAKOTA REGIONAL WEATHER ROUNDUP
NATIONAL WEATHER SERVICE BISMARCK ND
1200 PM CDT WED MAY 04 2016

NOTE: "FAIR" INDICATES FEW OR NO CLOUDS BELOW 12,000 FEET WITH NO
SIGNIFICANT WEATHER AND/OR OBSTRUCTIONS TO VISIBILITY.


NDZ001>003-009>011-017-041800-
NORTHWEST NORTH DAKOTA

CITY           SKY/WX    TMP DP  RH WIND       PRES   REMARKS
WILLISTON      SUNNY     77  45  32 SW9       30.02F
MINOT          SUNNY     79  34  19 E6        30.02F
MINOT AFB      SUNNY     74  38  27 SW8       30.00F
$$

NDZ018>021-031>035-040>046-041800-
SOUTHWEST NORTH DAKOTA

CITY           SKY/WX    TMP DP  RH WIND       PRES   REMARKS
BISMARCK       SUNNY     69  34  27 S5        30.09F
DICKINSON      SUNNY     74  39  28 SW7       30.05F
GARRISON         N/A     71  36  27 VRB6      30.05F
HETTINGER ARPT SUNNY     73  41  31 SW8       30.10F
$$

NDZ004>008-012>016-024-026-027-054-041800-
NORTHEAST NORTH DAKOTA

CITY           SKY/WX    TMP DP  RH WIND       PRES   REMARKS
GRAND FORKS    MOSUNNY   60  36  40 VRB7      30.08F
GRND FRKS AFB  SUNNY     59  36  41 VRB2      30.09F
DEVILS LAKE    SUNNY     58  36  43 VRB6      30.09F
$$

NDZ022-023-025-028>030-036>039-047>053-041800-
SOUTHEAST NORTH DAKOTA

CITY           SKY/WX    TMP DP  RH WIND       PRES   REMARKS
FARGO          SUNNY     61  36  39 NW7       30.08F
JAMESTOWN      SUNNY     60  34  37 VRB6      30.09F
$$





USA.gov is the U.S. government's official web portal to all federal, state and local government web resources and services.